When you browse on this site, cookies collect data to enhance your experience and personalize the content and advertising you see.
Visit our Privacy Policy to learn more. By continuing to use the site, you agree to this use of cookies and data.
  • In Deutschland
  • Länderverzeichnis
  • Für 7 Tage
  • Wassertemperatur
  • Satellitenkarten
  • Wetterkarte
  • Widgets
  • user-avatar
    Anmelden

    Stündliche Wetter Düsseldorf

    Heute, 10 Dezember, Montag

    Zeit Temperatur Niederschläge Wind Luftdruck Luftfeuchtigkeit
    00:00 +5°C° 0 mm 4 m/S 758 mmHg 77%
    01:00 +5°C° 0.1 mm 4 m/S 759 mmHg 77%
    02:00 +5°C° 0.1 mm 5 m/S 759 mmHg 76%
    03:00 +5°C° 0.1 mm 5 m/S 759 mmHg 76%
    04:00 +5°C° 0.1 mm 5 m/S 760 mmHg 77%
    05:00 +3°C° 0.1 mm 5 m/S 760 mmHg 77%
    06:00 +3°C° 0.1 mm 5 m/S 761 mmHg 78%
    07:00 +3°C° 0.2 mm 5 m/S 761 mmHg 78%
    08:00 +5°C° 0.2 mm 5 m/S 761 mmHg 78%
    09:00 +5°C° 0.2 mm 5 m/S 762 mmHg 78%
    10:00 +5°C° 0.4 mm 5 m/S 762 mmHg 75%
    11:00 +6°C° 0.4 mm 5 m/S 762 mmHg 71%
    12:00 +5°C° 0.4 mm 6 m/S 762 mmHg 68%
    13:00 +6°C° 0.3 mm 5 m/S 762 mmHg 68%
    14:00 +6°C° 0.3 mm 5 m/S 762 mmHg 68%
    15:00 +5°C° 0.3 mm 5 m/S 762 mmHg 69%
    16:00 +5°C° 0.1 mm 5 m/S 762 mmHg 70%
    17:00 +4°C° 0.1 mm 4 m/S 763 mmHg 71%
    18:00 +4°C° 0.1 mm 4 m/S 763 mmHg 73%
    19:00 +4°C° 0 mm 4 m/S 763 mmHg 74%
    20:00 +3°C° 0 mm 4 m/S 763 mmHg 75%
    21:00 +3°C° 0 mm 4 m/S 763 mmHg 77%
    22:00 +3°C° 0.1 mm 4 m/S 763 mmHg 78%
    23:00 +3°C° 0.1 mm 4 m/S 764 mmHg 79%

    Morgen, 11 Dezember, Dienstag

    Zeit Temperatur Niederschläge Wind Luftdruck Luftfeuchtigkeit
    00:00 +3°C° 0.1 mm 4 m/S 764 mmHg 80%
    01:00 +3°C° 0.1 mm 4 m/S 764 mmHg 80%
    02:00 +3°C° 0.1 mm 4 m/S 763 mmHg 81%
    03:00 +3°C° 0.1 mm 4 m/S 763 mmHg 81%
    04:00 +3°C° 0.1 mm 4 m/S 763 mmHg 81%
    05:00 +3°C° 0.1 mm 4 m/S 763 mmHg 81%
    06:00 +3°C° 0.1 mm 4 m/S 763 mmHg 81%
    07:00 +3°C° 0.1 mm 4 m/S 763 mmHg 81%
    08:00 +4°C° 0.1 mm 4 m/S 763 mmHg 80%
    09:00 +4°C° 0.1 mm 3 m/S 763 mmHg 80%
    10:00 +4°C° 0.1 mm 4 m/S 763 mmHg 76%
    11:00 +5°C° 0.1 mm 4 m/S 763 mmHg 72%
    12:00 +6°C° 0.1 mm 4 m/S 763 mmHg 68%
    13:00 +5°C° 0 mm 3 m/S 763 mmHg 70%
    14:00 +5°C° 0 mm 3 m/S 763 mmHg 72%
    15:00 +6°C° 0 mm 2 m/S 763 mmHg 74%
    16:00 +5°C° 0 mm 2 m/S 763 mmHg 77%
    17:00 +4°C° 0 mm 2 m/S 763 mmHg 79%
    18:00 +4°C° 0 mm 2 m/S 763 mmHg 82%
    19:00 +3°C° 0 mm 2 m/S 763 mmHg 83%
    20:00 +3°C° 0 mm 2 m/S 764 mmHg 85%
    21:00 +4°C° 0 mm 1 m/S 764 mmHg 86%
    22:00 +4°C° 0 mm 1 m/S 764 mmHg 87%
    23:00 +3°C° 0 mm 1 m/S 764 mmHg 88%

    übermorgen, 12 Dezember, Mittwoch

    Zeit Temperatur Niederschläge Wind Luftdruck Luftfeuchtigkeit
    00:00 +3°C° 0 mm 1 m/S 763 mmHg 88%
    01:00 +3°C° 0 mm 1 m/S 763 mmHg 89%
    02:00 +3°C° 0 mm 1 m/S 763 mmHg 89%
    03:00 +2°C° 0 mm 0 m/S 763 mmHg 90%
    04:00 +2°C° 0 mm 0 m/S 763 mmHg 90%
    05:00 +2°C° 0 mm 0 m/S 763 mmHg 89%
    06:00 +2°C° 0 mm 0 m/S 763 mmHg 89%
    07:00 +2°C° 0 mm 0 m/S 763 mmHg 88%
    08:00 +3°C° 0 mm 0 m/S 764 mmHg 87%
    09:00 +3°C° 0 mm 0 m/S 764 mmHg 86%
    10:00 +5°C° 0 mm 1 m/S 763 mmHg 84%
    11:00 +5°C° 0 mm 1 m/S 763 mmHg 81%
    12:00 +6°C° 0 mm 1 m/S 763 mmHg 78%
    13:00 +5°C° 0 mm 1 m/S 763 mmHg 79%
    14:00 +5°C° 0 mm 1 m/S 763 mmHg 80%
    15:00 +5°C° 0 mm 1 m/S 762 mmHg 80%
    16:00 +3°C° 0 mm 2 m/S 762 mmHg 82%
    17:00 +3°C° 0 mm 2 m/S 762 mmHg 83%
    18:00 +3°C° 0 mm 2 m/S 762 mmHg 85%
    19:00 +2°C° 0 mm 2 m/S 762 mmHg 85%
    20:00 +2°C° 0 mm 2 m/S 762 mmHg 85%
    21:00 +2°C° 0 mm 2 m/S 762 mmHg 85%
    22:00 +1°C° 0 mm 2 m/S 762 mmHg 85%
    23:00 +1°C° 0 mm 2 m/S 762 mmHg 84%

    13 Dezember, Donnerstag

    Zeit Temperatur Niederschläge Wind Luftdruck Luftfeuchtigkeit
    00:00 +1°C° 0 mm 2 m/S 761 mmHg 84%
    01:00 +1°C° 0 mm 2 m/S 761 mmHg 83%
    02:00 -1°C° 0 mm 2 m/S 761 mmHg 83%
    03:00 -1°C° 0 mm 2 m/S 760 mmHg 83%
    04:00 -1°C° 0 mm 2 m/S 760 mmHg 84%
    05:00 -1°C° 0 mm 2 m/S 760 mmHg 84%
    06:00 -1°C° 0 mm 2 m/S 759 mmHg 84%
    07:00 0°C° 0 mm 3 m/S 759 mmHg 83%
    08:00 0°C° 0 mm 3 m/S 759 mmHg 82%
    09:00 0°C° 0 mm 3 m/S 759 mmHg 80%
    10:00 +1°C° 0 mm 3 m/S 758 mmHg 77%
    11:00 +2°C° 0 mm 3 m/S 758 mmHg 73%
    12:00 +2°C° 0 mm 3 m/S 758 mmHg 70%
    13:00 +2°C° 0 mm 3 m/S 758 mmHg 71%
    14:00 +2°C° 0 mm 3 m/S 757 mmHg 72%
    15:00 +1°C° 0 mm 3 m/S 757 mmHg 73%
    16:00 +1°C° 0 mm 3 m/S 758 mmHg 75%
    17:00 0°C° 0 mm 3 m/S 758 mmHg 77%
    18:00 0°C° 0 mm 3 m/S 758 mmHg 79%
    19:00 0°C° 0 mm 3 m/S 758 mmHg 80%
    20:00 -1°C° 0 mm 3 m/S 759 mmHg 81%
    21:00 -1°C° 0 mm 3 m/S 759 mmHg 81%
    22:00 -1°C° 0 mm 3 m/S 759 mmHg 82%
    23:00 -1°C° 0 mm 2 m/S 759 mmHg 82%

    14 Dezember, Freitag

    Zeit Temperatur Niederschläge Wind Luftdruck Luftfeuchtigkeit
    00:00 -1°C° 0 mm 2 m/S 760 mmHg 82%
    01:00 -2°C° 0 mm 2 m/S 760 mmHg 82%
    02:00 -2°C° 0 mm 2 m/S 760 mmHg 82%
    03:00 -2°C° 0 mm 2 m/S 760 mmHg 81%
    04:00 -2°C° 0 mm 2 m/S 761 mmHg 81%
    05:00 -2°C° 0 mm 2 m/S 761 mmHg 80%
    06:00 -2°C° 0 mm 2 m/S 761 mmHg 80%
    07:00 -2°C° 0 mm 2 m/S 761 mmHg 77%
    08:00 -1°C° 0 mm 2 m/S 762 mmHg 75%
    09:00 -1°C° 0 mm 2 m/S 763 mmHg 73%
    10:00 +1°C° 0 mm 2 m/S 763 mmHg 69%
    11:00 +3°C° 0 mm 1 m/S 763 mmHg 65%
    12:00 +3°C° 0 mm 1 m/S 763 mmHg 60%
    13:00 +3°C° 0 mm 1 m/S 763 mmHg 63%
    14:00 +3°C° 0 mm 1 m/S 764 mmHg 66%
    15:00 +2°C° 0 mm 1 m/S 764 mmHg 68%
    16:00 +2°C° 0 mm 1 m/S 764 mmHg 71%
    17:00 +1°C° 0 mm 1 m/S 765 mmHg 73%
    18:00 -1°C° 0 mm 2 m/S 765 mmHg 75%
    19:00 -1°C° 0 mm 2 m/S 766 mmHg 76%
    20:00 -1°C° 0 mm 2 m/S 766 mmHg 76%
    21:00 -1°C° 0 mm 2 m/S 766 mmHg 76%
    22:00 -1°C° 0 mm 2 m/S 766 mmHg 77%
    23:00 -1°C° 0 mm 2 m/S 766 mmHg 77%

    15 Dezember, Samstag

    Zeit Temperatur Niederschläge Wind Luftdruck Luftfeuchtigkeit
    00:00 -1°C° 0 mm 2 m/S 766 mmHg 77%
    01:00 -1°C° 0 mm 2 m/S 766 mmHg 77%
    02:00 -1°C° 0 mm 2 m/S 766 mmHg 78%
    03:00 -1°C° 0 mm 2 m/S 766 mmHg 78%
    04:00 -1°C° 0 mm 3 m/S 766 mmHg 79%
    05:00 -1°C° 0 mm 3 m/S 766 mmHg 80%
    06:00 0°C° 0 mm 3 m/S 766 mmHg 81%
    07:00 0°C° 0 mm 3 m/S 766 mmHg 81%
    08:00 0°C° 0 mm 4 m/S 766 mmHg 81%
    09:00 +1°C° 0 mm 4 m/S 766 mmHg 82%
    10:00 +3°C° 0 mm 4 m/S 766 mmHg 81%
    11:00 +3°C° 0 mm 4 m/S 765 mmHg 81%
    12:00 +4°C° 0 mm 4 m/S 765 mmHg 81%
    13:00 +4°C° 0.1 mm 4 m/S 765 mmHg 82%
    14:00 +4°C° 0.1 mm 4 m/S 765 mmHg 84%
    15:00 +4°C° 0.1 mm 4 m/S 764 mmHg 86%
    16:00 +4°C° 0.1 mm 4 m/S 764 mmHg 87%
    17:00 +4°C° 0.1 mm 4 m/S 764 mmHg 87%
    18:00 +5°C° 0.1 mm 4 m/S 764 mmHg 88%
    19:00 +5°C° 0.2 mm 4 m/S 764 mmHg 88%
    20:00 +5°C° 0.2 mm 5 m/S 763 mmHg 88%
    21:00 +5°C° 0.2 mm 5 m/S 763 mmHg 88%
    22:00 +5°C° 0.1 mm 5 m/S 763 mmHg 87%
    23:00 +5°C° 0.1 mm 5 m/S 763 mmHg 87%
    Mehr zeigen